FENGYUN 1C DEB, 30114

Orbit data source: Space-Track

FENGYUN 1C DEB, 30114 is space debris in SSO originally from a launch on Mon, 10 May 1999 UTC launched from the Taiyaun Space Center, China (TSC). Fengyun 1C debris stems from the Chinese weather satellite Fengyun-1C, which was intentionally destroyed by a Chinese anti-satellite missile in 2007. This event dramatically increased the amount of space debris, with thousands of trackable fragments posing hazards to satellites and human spaceflight. The Fengyun 1C debris cloud has become a focal point in discussions about space sustainability and the need for international regulations to prevent the creation of new debris.

Loading next visibility...
Identifier
30114, 1999-025RT
Orbit
SSO
Country
Flag of CNCN / PRC
Related business
Manufacturer
Unknown
Mission
Spacecraft
Bus & Motor
Unknown
Mass
Unknown
Launch date (UTC)
1999-05-10 (27 years ago)
Launch vehicle
Unknown
Launch site
Taiyaun Space Center, China (TSC)
Object type
Payload
Rocket body
Debris
Shape & HBR
Unknown shape, 0.1 m
Radar Cross Section
Small (<0.1 m²)

Expand to show TLE details & history
Last TLE update: 14 hours ago

TLE from 14 hours ago
0 FENGYUN 1C DEB
1 30114U 99025RT  26071.01517407  .00000399  00000-0  24463-3 0  9998
2 30114  98.7505  75.8756 0080373 226.9785 195.0431 14.09737433984121
Epoch: 2026-03-12T00:21Z
TLE epoch observation values (Epoch: 2026-03-12T00:21:51.039Z)
Latitude
60.66038°
Longitude
-115.06625°
Altitude
926.802 km
Speed
7.365 km/s
True Right ascension
04h 00m 16s
True Declination
60° 30' 60"
Sunlit
Object was in daylight at epoch
Visualization orbit readout
Latitude
Unknown
Longitude
Unknown
Altitude
Unknown
Speed
Unknown
Apparent Right ascension
Unknown
Apparent Declination
Unknown
Sunlit
N/A
Visualization observer readout
Local Sidereal Time
18:36:24
Azimuth
Unknown
Elevation
Unknown
Doppler factor
Unknown
Orbital elements
Apogee altitude
915.599 km
Perigee altitude
799.29 km
Semi-major axis
7,235.581 km
Eccentricity
0.00804
Inclination
98.7505°
RAAN
75.8756°
Arg. of periapsis
226.9785°
True anomaly
194.80636°
Mean anomaly
195.0431°
Eccentric anomaly
194.9245°
Mean motion
3.52641 °/min
Orbital period
102.09 mins
BSTAR
0.00024463
Loading maneuver chart data...
Computing Atmospheric mass density...
Loading historical data...
Loading historical data...
Loading historical data...
Loading historical data...
Loading historical data...
Loading historical data...
Loading historical data...

Documentation

Showing up to 5 results
|